カタログに戻る

COSMOS 594

運用中軍事LEO
NORAD 6851·PAYLOAD·🇷🇺 Russia

打ち上げ Oct 2, 1973 から Plesetsk Cosmodrome

Loading…

次のパス (今後24時間)

TLE

最新Source: Space-Track

元期: Sep 14, 2026, 04:32 UTC

1 06851U 73069G   26257.18916837  .00000010  00000-0  15434-3 0  9991
2 06851  74.0020 158.0876 0067620 212.1670 302.3034 12.57652069430836

AllMySatでCOSMOS 594をリアルタイム追跡

Download on the App Store